STARLINK-35470

Satellite information

Favourite Embed

Satellite Type and Status

PAYLOADIN ORBIT

Key statistics

Satellite STARLINK-35470 at a glance.

Uptime

32

Days in orbit

Revolutions

≈ 15.4

Per day

Orbit

LEO

Low Earth Orbit

Inclination

43.0

Latest

Satellite identification and parameters

Extended collection of information and parameters for STARLINK-35470.

Object identification

Identified? True

Debris? False

Object name: STARLINK-35470

International designator: 2025-259J

Object number (NORAD): 66430

Object ID (CCSDS): 66430

Country: UNITED STATES OF AMERICA (US)

Current information (Y/N): Y

Orbital parameters

Period: 93.463 minutes

Inclination: 42.9994 deg

SMA: 6822.106 km

Apoapsis: 444.776 km

Periapsis: 443.166 km

RAAN: 50.9029 deg

Eccentricy: 0.00011802

Argument of periapsis: 273.1347 deg

Mean anomaly: 86.9374 deg

Mean motion: 15.4072478 rev/day

Mean motion (dot): 0.00064608 rev/day2

B* drag term: 0.0015395864 1/REarth

Two-line elements (TLE)

Creation date: Dec. 12, 2025, 10:14 a.m.

Reference frame: TEME

Reference center: EARTH

Epoch: Dec. 12, 2025, 5:07 a.m. UTC

TLE line 0: 0 STARLINK-35470

TLE line 1: 1 66430U 25259J 25346.21333443 .00064608 00000-0 15396-2 0 9995

TLE line 2: 2 66430 42.9994 50.9029 0001180 273.1347 86.9374 15.40724780 6089

Live tracking on map

Real-time ground track for satellite STARLINK-35470.

In-orbit conjunctions

There are no conjunctions computed for STARLINK-35470, at the moment. Check back to stay up to date, as we update our databases every day.

Go to all conjunctions

Associated space launch

A batch of 29 satellites for the Starlink mega-constellation - SpaceX's project for space-based Internet communication system.

STARLINK-35470 was lifted into orbit during the mission ‘Falcon 9 Block 5 | Starlink Group 6-87’, on board a Falcon 9 space rocket.

The launch took place on Nov. 11, 2025, 3:21 a.m. from Space Launch Complex 40.

For more information about the launch, click the button.

Launch to space Falcon 9 Block 5 | Starlink Group 6-87
Falcon 9 Block 5 | Starlink Group 6-87

Agency: SpaceX

Status: Launch Successful

Launch date: Nov. 11, 2025, 3:21 a.m. UTC

Rocket: Falcon 9

Launch pad: Space Launch Complex 40

Location: Cape Canaveral SFS, FL, USA

...

Latest news about this satellite

News about space launch
Live coverage: SpaceX to launch 29 Starlink satellites on Falcon 9 rocket from Cape Canaveral

This is the sixth consecutive year of increasing orbital launches from the Sunshine State. Liftoff of the Starlink 6-87 mission from pad 40 at Cape Canaveral Space Force Station is scheduled for 10:21 p.m. EST (0321 UTC).


Newsletter sign-up

Weekly statistics, charts and insights to help you stay on top of the space industry.